Regional Weather Roundup
Issued by NWS Cleveland, OH

Home | Current Version | Previous Version | Text Only | Print | Product List | Glossary On
Versions: 1 2 3 4 5 6 7 8 9 10 11 12 13 14 15 16 17 18 19 20 21 22 23 24 25 26 27 28 29 30 31 32 33 34 35 36 37 38 39 40 41 42 43 44 45 46 47 48 49 50
000
ASUS41 KCLE 300710
RWRCLE
OHIO REGIONAL WEATHER ROUNDUP
NATIONAL WEATHER SERVICE CLEVELAND, OH
300 AM EDT SAT MAY 30 2015

NOTE: "FAIR" INDICATES FEW OR NO CLOUDS BELOW 12,000 FEET WITH NO
SIGNIFICANT WEATHER AND/OR OBSTRUCTIONS TO VISIBILITY.

OHZ001>008-015>018-024>027-034-035-043-044-300800-
   NORTHWEST OHIO

CITY           SKY/WX    TMP DP  RH WIND       PRES   REMARKS
DEFIANCE       CLEAR     71  64  78 S8        29.99S
FINDLAY        PTCLDY    72  66  81 S12       30.01F
TOLEDO EXPRESS CLEAR     71  64  78 S9        29.98F
TOLEDO EXEC    CLEAR     72  64  76 S12       30.00S
LIMA           PTCLDY    71  65  81 S8        30.02F
$$

OHZ009>014-019>023-028>033-038-089-300800-
   NORTHEAST OHIO

CITY           SKY/WX    TMP DP  RH WIND       PRES   REMARKS
CLE-HOPKINS    PTCLDY    73  63  70 S9        30.05S
CLE-LAKEFRONT  PTCLDY    76  62  62 S16       30.02S
CUY CO. ARPT   NOT AVBL
LORAIN-ELYRIA  PTCLDY    72  63  73 S10       30.04S
ASHTABULA      MOCLDY    71  65  81 S8        30.05F
AKRON-CANTON   CLOUDY    73  64  73 S9        30.07F
WOOSTER        MOCLDY    70  63  78 SW9       30.07F
MANSFIELD      PTCLDY    70  64  81 S12       30.07S
YOUNGSTOWN     CLOUDY    71  65  81 S8        30.07F
$$

OHZ042-051>053-060>062-070>072-077>081-300800-
  SOUTHWEST OHIO

CITY           SKY/WX    TMP DP  RH WIND       PRES   REMARKS
CINC-COVINGTON PTCLDY    69  65  86 S7        30.07S
CINC-LUNKEN    MOCLDY    68  66  93 SW5       30.06F
HAMILTON       PTCLDY    69  66  90 CALM      30.06F
DAYTON         MOCLDY    73  67  81 S10       30.06F
WRIGHT-PAT AFB PTCLDY    71  67  85 S9        30.05F
DAYTON GENERAL PTCLDY    70  66  87 S9        30.05F
WILMINGTON     PTCLDY    69  64  84 S8        30.07S
$$

OHZ036-037-039>041-045>050-054>059-063>069-073>076-082>088-300800-
  CENTRAL AND SOUTHEAST OHIO

CITY           SKY/WX    TMP DP  RH WIND       PRES   REMARKS
COLUMBUS       CLOUDY    72  66  81 S6        30.07S
OSU AIRPORT    MOCLDY    72  65  78 S7        30.06F
BOLTON FIELD   NOT AVBL
RICKENBACK AFB MOCLDY    70  66  85 S8        30.06F
NEWARK         PTCLDY    71  64  78 W3        30.07F
MARION         PTCLDY    71  64  78 S12       30.06S
LANCASTER      MOCLDY    73  65  75 S6        30.08F
ZANESVILLE     NOT AVBL
NEW PHILLY     PTCLDY    73  64  73 S5        30.09S
$$


USA.gov is the U.S. government's official web portal to all federal, state and local government web resources and services.